Vorticity
6 4 3 3 5 4 6 5 4 5 4 6 6 6 5 5 5 5 5 5 5 4 5 4 4 3 4 10 7 8 8 7 9 8 8 8 6 9
5 4 4 3 4 4 4 5 5 4 8 8 6 4 5 6 5 5 5 6 5 5 6 4 4 4 4 10 9 8 7 10 9 8 8 7 8 11
5 5 5 4 4 5 4 5 6 6 6 5 6 6 6 5 5 6 5 5 5 5 6 4 5 3 4 11 8 7 9 10 9 9 7 10 13 7
6 6 5 5 4 5 5 5 6 6 6 5 5 6 6 6 5 5 6 6 5 6 5 5 6 5 1 10 10 9 9 8 9 9 11 9 8 8
6 7 7 6 6 6 6 6 5 5 5 5 5 5 5 6 6 6 6 5 5 6 5 7 5 4 1 13 10 9 9 11 10 7 13 8 7 7
6 7 7 8 7 6 6 6 6 6 5 5 6 6 5 6 7 6 5 6 6 5 6 6 2 5 1 16 9 7 12 11 9 13 7 7 6 7
6 6 8 8 6 6 6 6 7 6 5 6 6 5 6 7 5 5 7 6 6 5 8 4 3 6 4 12 7 11 13 9 11 7 8 6 6 8
9 7 9 8 6 5 5 4 2 3 5 6 5 8 8 8 4 6 5 7 6 5 5 4 5 3 9 8 10 13 11 11 9 9 5 6 7 8
9 8 8 8 6 6 5 4 5 7 8 6 7 8 7 3 10 7 6 7 5 5 5 6 6 2 11 9 13 11 13 11 10 5 5 5 7 8
9 10 9 9 7 7 6 7 8 11 5 4 6 7 3 10 6 5 8 6 5 5 4 7 5 4 9 11 14 13 11 12 6 5 6 6 8 8
5 11 9 8 8 7 8 10 10 6 5 6 10 0 10 8 5 4 6 5 6 5 3 11 3 10 11 14 12 12 12 7 5 6 7 7 7 7
17 9 7 9 8 8 8 8 5 5 6 7 -4 16 4 7 5 3 9 6 6 5 11 6 7 12 13 13 12 13 9 6 5 6 7 7 7 7
5 8 5 7 5 6 6 6 5 5 1 -0 7 6 11 4 4 10 6 8 6 8 7 5 11 12 11 15 15 9 7 5 7 7 8 8 7 8
4 7 10 9 6 3 2 3 8 -11 24 12 12 6 7 5 1 11 9 5 7 6 7 11 10 12 13 14 13 7 7 5 6 7 10 9 7 8
25 7 12 8 9 11 4 2 -3 -9 25 5 -1 9 6 9 12 10 4 4 5 8 9 8 12 14 14 14 7 5 8 6 7 10 10 10 8 8
14 55 12 26 -0 3 14 0 -9 40 6 7 4 -2 11 12 6 4 8 0 9 10 7 10 14 16 12 8 5 6 7 5 6 8 9 10 8 9
11 30 11 8 22 -6 12 4 26 8 4 18 7 13 5 7 7 10 12 10 10 7 9 13 15 14 9 6 6 6 6 7 8 8 8 9 8 11
25 53 -31 14 13 15 27 15 12 8 12 -4 8 22 -1 10 8 11 10 10 7 8 12 15 14 10 7 5 6 6 7 7 8 9 9 9 8 12
25 20 25 14 21 26 27 9 7 7 2 6 7 10 13 6 10 8 10 8 9 10 14 14 11 8 6 8 7 5 7 8 9 8 8 8 8 13
4 21 12 15 24 4 4 -0 8 11 11 12 16 15 0 9 7 10 9 9 10 13 14 10 8 6 5 5 8 8 7 10 9 8 9 8 8 14
0 -8 4 17 15 20 19 15 7 8 5 2 7 8 6 6 10 11 9 11 13 13 9 8 6 5 6 8 9 9 10 9 9 9 9 8 9 10
14 9 16 21 8 14 10 -9 12 6 6 15 10 7 7 10 11 9 11 14 11 8 9 8 5 6 7 7 8 9 9 9 10 10 8 8 10 13
15 16 -10 19 8 11 4 17 14 2 12 10 8 7 11 10 10 12 13 10 7 9 8 6 6 7 8 8 8 8 9 10 10 10 9 10 11 16
Height
3157 3161 3165 3170 3175 3179 3182 3185 3188 3190 3192 3194 3196 3197 3198 3198 3198 3198 3198 3197 3195 3194 3192 3189 3186 3181 3177 3173 3169 3164 3159 3154 3148 3143 3138 3133 3128 3122
3152 3156 3161 3166 3171 3175 3179 3182 3184 3187 3189 3191 3193 3194 3195 3195 3195 3195 3195 3194 3192 3190 3188 3185 3182 3178 3173 3169 3165 3160 3155 3149 3144 3139 3134 3129 3123 3118
3148 3152 3158 3163 3167 3171 3175 3178 3181 3184 3186 3187 3189 3190 3191 3192 3192 3192 3191 3190 3188 3187 3184 3181 3179 3174 3170 3164 3160 3155 3150 3145 3139 3134 3129 3124 3118 3112
3143 3148 3154 3160 3164 3168 3171 3175 3178 3180 3182 3184 3185 3186 3187 3188 3188 3188 3187 3186 3185 3183 3181 3178 3174 3170 3165 3160 3155 3150 3145 3139 3135 3130 3124 3119 3113 3107
3139 3144 3151 3156 3160 3164 3168 3171 3174 3176 3178 3180 3181 3182 3183 3184 3184 3184 3183 3183 3181 3179 3176 3173 3170 3165 3160 3155 3150 3145 3140 3134 3129 3124 3119 3114 3108 3102
3134 3140 3146 3152 3156 3160 3164 3167 3169 3172 3174 3175 3177 3179 3180 3180 3180 3180 3179 3179 3177 3174 3171 3169 3165 3160 3156 3150 3144 3140 3135 3129 3124 3119 3114 3108 3102 3096
3128 3135 3142 3147 3152 3155 3159 3162 3164 3167 3169 3171 3173 3174 3175 3175 3175 3175 3175 3173 3171 3170 3167 3163 3159 3155 3150 3144 3139 3134 3129 3123 3118 3114 3109 3104 3097 3090
3123 3130 3137 3141 3145 3149 3153 3155 3157 3160 3164 3167 3168 3169 3170 3170 3170 3170 3169 3168 3166 3164 3161 3159 3154 3150 3144 3139 3134 3129 3122 3117 3113 3108 3104 3097 3091 3086
3118 3124 3130 3135 3139 3144 3146 3149 3153 3157 3159 3161 3163 3164 3166 3165 3166 3165 3163 3162 3160 3158 3156 3153 3149 3145 3139 3134 3129 3123 3118 3113 3108 3102 3096 3090 3086 3080
3112 3119 3125 3130 3135 3138 3142 3146 3149 3151 3153 3156 3157 3159 3159 3160 3161 3160 3158 3156 3154 3152 3150 3147 3143 3138 3133 3128 3123 3118 3113 3110 3104 3099 3094 3087 3081 3076
3105 3111 3117 3124 3129 3133 3138 3141 3144 3145 3148 3150 3152 3154 3153 3156 3155 3154 3153 3151 3149 3147 3144 3141 3138 3133 3129 3123 3117 3113 3109 3104 3100 3094 3088 3081 3074 3068
3096 3104 3110 3117 3121 3126 3131 3135 3137 3140 3141 3143 3145 3147 3148 3149 3148 3147 3147 3145 3144 3142 3139 3136 3131 3127 3122 3118 3113 3110 3104 3100 3097 3091 3085 3077 3069 3060
3089 3096 3101 3108 3113 3118 3123 3127 3131 3133 3134 3138 3139 3141 3143 3142 3142 3141 3141 3140 3138 3135 3132 3130 3126 3122 3117 3112 3107 3103 3099 3095 3092 3088 3083 3076 3065 3058
3084 3091 3096 3102 3107 3112 3116 3120 3124 3126 3130 3131 3134 3136 3136 3136 3136 3135 3134 3134 3132 3129 3126 3124 3120 3116 3112 3108 3104 3101 3097 3091 3087 3084 3079 3071 3063 3055
3076 3084 3092 3097 3101 3105 3110 3115 3118 3123 3125 3127 3129 3130 3130 3129 3130 3129 3129 3128 3126 3124 3121 3117 3113 3109 3106 3103 3100 3097 3096 3090 3084 3078 3073 3066 3055 3047
3072 3077 3085 3089 3095 3101 3104 3109 3112 3117 3119 3121 3122 3123 3124 3124 3124 3124 3122 3121 3120 3118 3115 3111 3108 3105 3101 3097 3095 3091 3086 3081 3076 3069 3065 3061 3051 3041
3066 3072 3078 3082 3087 3094 3100 3103 3107 3110 3112 3114 3115 3116 3118 3118 3118 3118 3117 3116 3114 3110 3108 3105 3102 3099 3096 3094 3091 3087 3082 3076 3070 3063 3056 3054 3046 3037
3062 3068 3075 3080 3085 3090 3094 3098 3100 3103 3106 3108 3109 3110 3111 3111 3111 3111 3111 3109 3107 3105 3102 3099 3096 3094 3091 3089 3085 3080 3076 3071 3065 3057 3051 3045 3041 3032
3058 3064 3071 3077 3081 3085 3089 3092 3096 3098 3101 3103 3104 3105 3106 3106 3105 3104 3103 3103 3101 3098 3096 3095 3092 3090 3088 3086 3081 3075 3070 3063 3058 3053 3045 3038 3032 3026
3057 3063 3068 3073 3078 3082 3084 3087 3090 3093 3095 3096 3098 3099 3100 3100 3099 3097 3097 3096 3094 3092 3090 3089 3088 3086 3083 3081 3077 3072 3062 3057 3051 3045 3038 3033 3026 3019
3055 3060 3066 3070 3074 3077 3080 3083 3085 3087 3088 3091 3093 3094 3094 3094 3093 3092 3091 3089 3088 3087 3086 3085 3083 3081 3078 3074 3071 3067 3061 3053 3045 3036 3030 3024 3016 3010
3053 3058 3063 3065 3069 3072 3075 3078 3080 3081 3084 3085 3087 3087 3087 3087 3087 3086 3085 3084 3083 3082 3082 3080 3078 3075 3073 3069 3064 3058 3054 3050 3045 3036 3027 3020 3010 3000
3051 3054 3059 3062 3064 3067 3071 3072 3074 3076 3077 3079 3080 3081 3081 3081 3082 3082 3080 3079 3079 3079 3078 3075 3073 3071 3067 3061 3056 3052 3046 3042 3036 3034 3028 3019 3012 3005